PTTBR UDYZ-LTFM

Flight info

Callsign PTTBR
Flight time N/A
Altitude 28000
Route INDUR B374 YAVUZ/N0497F430 UB374 ERZ UA4 ARKIN/N0497F470 UA4 TIMOP UT97 KANQO
Aircraft C750/M-SBDE3FGHRWXY/S

Departure

Time 2026-04-30 19:10
Airport Zvartnots International Airport (UDYZ)

Arrival

Time N/A
Airport İstanbul Airport (LTFM)
Time Latitude Longitude Altitude Speed Heading
2026-04-30 18:58 40.15060 44.41058 2834 ft 0 kts 89°
2026-04-30 19:05 40.15000 44.41165 2834 ft 9 kts 176°
2026-04-30 19:05 40.14876 44.41209 2834 ft 0 kts 149°
2026-04-30 19:08 40.14751 44.41246 2835 ft 19 kts 230°
2026-04-30 19:08 40.14741 44.41197 2834 ft 0 kts 268°
2026-04-30 19:09 40.14740 44.41066 2834 ft 53 kts 269°
2026-04-30 19:09 40.14735 44.40077 2859 ft 148 kts 270°
2026-04-30 19:09 40.14732 44.38681 3431 ft 160 kts 272°
2026-04-30 19:10 40.14724 44.35248 4148 ft 220 kts 269°
2026-04-30 19:10 40.14541 44.31175 4095 ft 224 kts 268°
2026-04-30 19:11 40.14465 44.29143 4095 ft 224 kts 267°
2026-04-30 19:11 40.14283 44.25073 4094 ft 224 kts 266°
2026-04-30 19:11 40.14193 44.23035 4095 ft 225 kts 266°
2026-04-30 19:12 40.14103 44.20961 4816 ft 225 kts 266°
2026-04-30 19:12 40.14009 44.18854 5415 ft 242 kts 266°
2026-04-30 19:12 40.13906 44.16542 5712 ft 266 kts 266°
2026-04-30 19:13 40.13685 44.11628 7164 ft 271 kts 266°
2026-04-30 19:13 40.13456 44.06593 9449 ft 273 kts 267°
2026-04-30 19:13 40.13342 44.04101 10371 ft 279 kts 267°
2026-04-30 19:14 40.13221 44.01452 10666 ft 305 kts 267°
2026-04-30 19:14 40.13088 43.98556 10795 ft 332 kts 267°
2026-04-30 19:14 40.12947 43.95534 11346 ft 340 kts 267°
2026-04-30 19:14 40.12801 43.92443 12150 ft 343 kts 267°
2026-04-30 19:15 40.12655 43.89315 12868 ft 347 kts 267°
2026-04-30 19:15 40.12355 43.82984 14259 ft 354 kts 267°
2026-04-30 19:15 40.12201 43.79752 14914 ft 357 kts 267°
2026-04-30 19:16 40.12043 43.76488 15553 ft 361 kts 267°
2026-04-30 19:16 40.11884 43.73199 16208 ft 364 kts 267°
2026-04-30 19:16 40.11559 43.66532 17607 ft 370 kts 267°
2026-04-30 19:17 40.11388 43.63159 18306 ft 374 kts 266°
2026-04-30 19:17 40.11017 43.56317 19646 ft 380 kts 266°
2026-04-30 19:17 40.10834 43.52863 20350 ft 382 kts 267°
2026-04-30 19:18 40.10518 43.46922 21543 ft 386 kts 267°
2026-04-30 19:18 40.10260 43.42203 22470 ft 390 kts 267°
2026-04-30 19:18 40.10064 43.38607 23146 ft 393 kts 267°
2026-04-30 19:19 40.09868 43.35029 23792 ft 396 kts 267°
2026-04-30 19:19 40.09668 43.31431 24345 ft 399 kts 267°
2026-04-30 19:19 40.09259 43.24141 25454 ft 404 kts 267°
2026-04-30 19:20 40.09043 43.20309 26020 ft 408 kts 267°
2026-04-30 19:20 40.08835 43.16654 26561 ft 410 kts 267°
2026-04-30 19:20 40.08407 43.09164 27651 ft 417 kts 267°
2026-04-30 19:21 40.08187 43.05370 28191 ft 420 kts 267°
2026-04-30 19:21 40.07739 42.97687 29281 ft 427 kts 267°
2026-04-30 19:22 40.07283 42.89944 30309 ft 434 kts 267°
2026-04-30 19:22 40.06580 42.78100 32023 ft 433 kts 267°
2026-04-30 19:23 40.05877 42.66450 34123 ft 426 kts 266°
2026-04-30 19:24 40.05405 42.58748 35193 ft 425 kts 266°
2026-04-30 19:24 40.05168 42.54906 35725 ft 425 kts 266°
2026-04-30 19:24 40.04689 42.47212 36804 ft 425 kts 265°
2026-04-30 19:25 40.03927 42.35654 38476 ft 425 kts 265°
2026-04-30 19:26 40.03397 42.27959 39434 ft 425 kts 265°
2026-04-30 19:26 40.02960 42.21570 40205 ft 424 kts 264°
2026-04-30 19:26 40.02691 42.17744 40689 ft 422 kts 264°
2026-04-30 19:27 40.02072 42.08891 41745 ft 420 kts 264°
2026-04-30 19:27 40.01623 42.02543 42457 ft 419 kts 264°
2026-04-30 19:28 40.01356 41.98792 42875 ft 419 kts 263°
2026-04-30 19:28 40.00814 41.91230 43712 ft 418 kts 263°
2026-04-30 19:29 40.00269 41.83682 44481 ft 418 kts 263°
2026-04-30 19:29 39.99994 41.79909 44867 ft 417 kts 263°
2026-04-30 19:30 39.99175 41.68600 45813 ft 417 kts 263°
2026-04-30 19:30 39.98641 41.61051 46368 ft 417 kts 263°
2026-04-30 19:31 39.98093 41.53518 46869 ft 417 kts 263°
2026-04-30 19:31 39.97821 41.49750 47054 ft 418 kts 263°
2026-04-30 19:31 39.97259 41.42097 47040 ft 429 kts 263°
2026-04-30 19:32 39.96680 41.34260 47044 ft 439 kts 263°
2026-04-30 19:32 39.96084 41.26261 47047 ft 448 kts 263°
2026-04-30 19:33 39.95664 41.18118 47050 ft 456 kts 268°
2026-04-30 19:33 39.95681 41.09783 47064 ft 456 kts 268°
2026-04-30 19:34 39.95672 41.01579 47058 ft 454 kts 268°
2026-04-30 19:35 39.95662 40.89237 47051 ft 454 kts 268°
2026-04-30 19:35 39.95651 40.81001 47050 ft 454 kts 268°
2026-04-30 19:36 39.95631 40.72760 47052 ft 453 kts 268°
2026-04-30 19:36 39.95590 40.60444 47045 ft 453 kts 268°
2026-04-30 19:37 39.95557 40.52225 47035 ft 454 kts 268°
2026-04-30 19:37 39.95519 40.43968 47038 ft 455 kts 268°
2026-04-30 19:38 39.95474 40.35748 47052 ft 457 kts 268°
2026-04-30 19:38 39.95424 40.27437 47052 ft 459 kts 268°
2026-04-30 19:39 39.95369 40.19113 47046 ft 458 kts 268°
2026-04-30 19:39 39.95305 40.10804 47043 ft 457 kts 268°
2026-04-30 19:40 39.95236 40.02499 47030 ft 459 kts 268°
2026-04-30 19:40 39.95161 39.94161 47045 ft 460 kts 268°
2026-04-30 19:41 39.95080 39.85829 47037 ft 458 kts 268°
2026-04-30 19:41 39.94987 39.77525 47031 ft 457 kts 268°
2026-04-30 19:42 39.94892 39.69231 47025 ft 458 kts 268°
2026-04-30 19:42 39.94789 39.60922 47029 ft 458 kts 268°
2026-04-30 19:43 39.94682 39.52615 47035 ft 458 kts 268°
2026-04-30 19:44 39.94515 39.40202 47039 ft 458 kts 268°
2026-04-30 19:44 39.94396 39.31906 47030 ft 457 kts 268°
2026-04-30 19:45 39.94270 39.23612 47032 ft 457 kts 268°
2026-04-30 19:45 39.94140 39.15352 47029 ft 455 kts 268°
2026-04-30 19:46 39.94005 39.07118 47036 ft 455 kts 268°
2026-04-30 19:46 39.93884 38.98875 47037 ft 455 kts 268°
2026-04-30 19:47 39.93746 38.90606 47039 ft 457 kts 268°
2026-04-30 19:47 39.93292 38.82337 47036 ft 458 kts 264°
2026-04-30 19:48 39.92746 38.74049 47030 ft 458 kts 264°
2026-04-30 19:48 39.92191 38.65832 47049 ft 457 kts 264°
2026-04-30 19:49 39.91629 38.57578 47023 ft 457 kts 264°
2026-04-30 19:49 39.90774 38.45185 47022 ft 458 kts 264°
2026-04-30 19:50 39.90197 38.36911 47031 ft 458 kts 264°
2026-04-30 19:50 39.89613 38.28640 47026 ft 459 kts 264°
2026-04-30 19:51 39.89025 38.20370 47048 ft 458 kts 264°
2026-04-30 19:51 39.88428 38.12097 47020 ft 458 kts 264°
2026-04-30 19:52 39.87828 38.03841 47019 ft 458 kts 264°
2026-04-30 19:52 39.87220 37.95563 47022 ft 459 kts 264°
2026-04-30 19:53 39.86616 37.87272 47029 ft 459 kts 264°
2026-04-30 19:53 39.86005 37.79007 47030 ft 459 kts 264°
2026-04-30 19:54 39.85392 37.70789 47043 ft 459 kts 264°
2026-04-30 19:54 39.84769 37.62518 47043 ft 458 kts 264°
2026-04-30 19:55 39.84137 37.54210 47038 ft 459 kts 264°
2026-04-30 19:55 39.83504 37.45954 47038 ft 459 kts 264°
2026-04-30 19:56 39.82858 37.37672 47041 ft 459 kts 264°
2026-04-30 19:56 39.82204 37.29447 47039 ft 459 kts 264°
2026-04-30 19:57 39.81545 37.21185 47044 ft 459 kts 264°
2026-04-30 19:57 39.80877 37.12912 47048 ft 459 kts 264°
2026-04-30 19:58 39.80206 37.04658 47056 ft 459 kts 264°
2026-04-30 19:58 39.79528 36.96411 47055 ft 458 kts 264°
2026-04-30 19:59 39.79227 36.88192 47050 ft 458 kts 273°
2026-04-30 20:00 39.80606 36.77232 47059 ft 458 kts 279°
2026-04-30 20:00 39.81326 36.71830 47062 ft 457 kts 279°